Tracking 18785 objects as of 27-July-2017
HD Live streaming from Space Station
objects crossing your sky now
MAYAK may become the brightest orbital object in the night sky!
Where is MAYAK now?
How to spot MAYAK

DELTA 2 DEB

Track DELTA 2 DEB now!
10-day predictions


NORAD ID: 27765
Int'l Code: 2000-040D
Perigee: 174.1 km
Apogee: 2,554.4 km
Inclination: 38.8 °
Period: 112.8 minutes
Semi major axis: 7735 km
RCS: 0.0144 m2 (small)
Launch date: July 16, 2000
Source: United States (US)
Launch site: AIR FORCE EASTERN TEST RANGE (AFETR)

Note: This is SATELLITE DEBRIS
Your satellite tracking list
Your tracking list is empty





NASA's NSSDC Master Catalog

Two Line Element Set (TLE):
1 27765U 00040D   17207.58018763 +.00210745 +25862-5 +28504-3 0  9995
2 27765 038.8274 018.1115 1538581 005.3379 356.1839 12.76125216434038
Source of the keplerian elements: AFSPC